Cloud_Cover
0 0 0 0 0 0 0 5 0 0 15 83 100 100 100 100 100 100 36 63 45 93 100 67 24 32 1 0 0 0 0 0 0 5 40 90 1 3 3 69 37 100 99 66 71 100 95
0 0 0 0 0 0 0 4 5 0 2 90 5 58 88 98 68 13 69 30 33 71 60 24 20 48 2 0 0 0 0 0 0 5 41 82 3 0 2 94 42 100 55 45 58 64 100
0 0 0 0 0 0 0 0 5 0 0 18 100 3 2 32 100 46 21 6 11 31 34 21 52 1 0 0 0 0 0 0 0 5 5 84 18 0 100 67 33 98 62 4 96 82 99
0 0 0 0 0 0 0 0 0 4 0 2 6 5 4 62 77 43 23 2 19 2 0 2 30 0 0 0 0 0 0 0 0 0 2 80 8 3 83 5 88 100 69 58 7 46 100
0 0 0 0 0 0 0 0 0 0 0 0 6 36 82 100 100 100 100 88 17 5 0 0 3 0 0 0 0 0 0 0 0 0 0 7 0 75 11 82 100 100 35 44 5 6 100
0 0 0 0 0 0 0 0 0 0 0 0 4 80 85 100 88 90 15 8 21 2 0 5 2 0 0 0 0 0 0 0 0 0 0 0 0 100 47 9 5 99 70 92 2 98 100
5 0 0 0 0 0 0 0 0 0 0 0 0 5 87 100 99 26 11 100 82 5 5 83 47 6 5 0 0 0 0 0 0 0 0 0 1 59 13 13 23 100 100 100 100 100 100
6 4 0 0 0 0 0 0 0 0 0 5 1 0 11 100 33 5 5 5 12 5 48 42 5 5 0 0 0 0 0 0 0 0 0 3 11 2 12 4 60 98 81 85 82 100 97
5 5 0 0 0 0 0 0 0 0 0 0 5 0 0 1 2 5 1 26 100 2 6 5 11 57 5 0 0 0 0 0 0 0 0 0 2 2 54 32 8 60 61 9 13 100 58
100 84 13 0 0 0 0 0 0 0 0 0 0 5 0 25 0 0 0 100 79 100 100 100 100 38 5 0 0 0 0 0 0 0 0 1 0 1 38 9 4 64 5 9 100 46 26
100 100 77 2 0 0 0 0 0 0 0 0 0 5 5 5 8 0 0 98 100 100 100 100 99 80 6 0 0 0 0 0 0 0 0 0 29 16 91 17 9 0 5 3 14 94 98
3 98 100 94 0 2 0 0 0 0 0 0 0 0 3 5 5 4 0 12 100 100 100 100 90 10 0 0 0 0 0 0 0 0 0 0 5 10 100 7 78 6 12 59 80 80 99
0 7 5 0 0 0 0 0 0 0 0 0 0 0 34 0 2 5 2 0 18 66 99 51 5 1 0 0 0 0 0 0 0 0 0 5 5 67 88 5 89 36 37 16 96 95 78
100 100 97 21 0 0 0 1 1 0 0 0 0 0 0 2 0 0 2 5 0 10 4 0 0 0 0 0 0 0 0 0 0 0 0 3 0 35 15 13 91 52 6 1 6 5 4
79 100 90 0 0 11 70 52 22 0 0 0 0 0 0 0 0 0 0 0 0 0 0 0 0 0 0 0 0 0 0 0 0 0 0 0 4 5 94 76 73 95 4 0 0 0 1
0 0 0 0 56 100 100 47 15 0 0 0 27 1 0 0 0 0 0 0 0 0 0 0 0 0 0 0 0 0 0 0 0 0 0 0 0 1 54 39 100 97 36 0 0 0 0
70 0 1 84 100 79 9 7 4 0 0 0 1 0 0 0 0 0 0 0 0 0 0 0 0 0 0 0 0 0 0 0 0 0 0 0 0 0 9 71 25 53 0 0 0 0 0
93 100 40 100 100 100 100 68 0 0 0 0 0 0 0 0 0 0 0 0 0 0 0 0 0 0 0 0 0 0 0 0 0 0 0 0 0 0 0 1 3 0 0 0 0 0 0
1 97 82 100 100 100 100 100 4 0 2 21 0 0 0 0 0 0 0 0 0 0 0 0 0 0 0 0 0 0 0 0 0 0 0 0 0 0 0 0 0 0 0 0 0 0 0
52 2 9 56 100 100 100 100 7 0 0 12 0 3 1 0 0 0 0 0 0 0 0 0 0 0 0 0 0 0 0 0 0 0 0 0 0 0 0 0 0 0 0 0 0 0 0
100 42 2 9 100 100 100 88 87 0 0 1 0 0 1 3 0 0 0 0 0 0 0 0 0 0 0 0 0 0 0 0 0 0 0 0 0 0 0 0 0 0 0 0 0 0 0
1 100 10 0 83 100 100 82 71 0 0 0 0 0 0 0 0 0 0 0 0 0 0 0 0 0 0 0 0 0 0 0 0 0 0 0 0 0 0 0 0 0 0 0 0 0 0
0 0 80 3 18 100 100 100 100 2 0 3 0 0 0 1 0 0 0 0 0 0 0 0 0 0 0 0 0 0 0 0 0 0 0 0 0 0 0 0 0 0 0 0 0 0 0
0 0 5 4 0 41 100 100 100 0 0 1 0 0 0 1 7 37 0 0 0 0 0 0 0 0 0 0 0 0 0 0 0 0 0 0 0 0 0 0 0 0 0 0 0 0 0
0 0 12 5 0 0 49 100 92 0 0 9 0 0 7 17 5 74 0 0 0 0 0 0 0 0 0 0 0 0 0 0 0 0 0 0 0 0 0 0 0 0 0 0 0 0 0
5 5 99 5 0 0 0 0 8 48 0 7 1 0 21 90 4 28 1 1 0 0 0 0 0 0 0 0 0 0 0 0 0 0 0 0 0 0 0 0 0 0 0 0 0 0 0
5 100 43 49 38 0 0 0 16 8 0 8 18 74 61 64 5 36 14 5 0 0 0 0 0 0 0 0 0 0 0 0 0 0 0 0 0 0 0 0 0 0 0 0 0 0 0
100 100 21 5 5 0 51 0 3 5 5 10 47 100 75 91 13 38 32 3 0 0 0 0 0 0 0 0 0 0 0 0 0 0 1 1 2 0 0 0 0 0 0 0 0 0 0
10 5 5 5 5 4 6 1 14 5 5 87 40 100 100 72 95 99 99 100 1 0 0 0 0 0 0 0 0 0 0 0 0 0 0 3 4 4 3 0 0 0 0 0 0 0 0